TimeCDT,TemperatureF,Dew PointF,Humidity,Sea Level PressureIn,VisibilityMPH,Wind Direction,Wind SpeedMPH,Gust SpeedMPH,PrecipitationIn,Events,Conditions,WindDirDegrees,DateUTC
12:53 AM,39.0,37.9,96,30.38,9.0,NW,3.5,-,N/A,,Clear,310,2013-09-17 05:53:00
1:53 AM,39.0,37.9,96,30.38,9.0,Calm,Calm,-,N/A,,Clear,0,2013-09-17 06:53:00
2:53 AM,37.9,37.0,97,30.38,10.0,West,3.5,-,N/A,,Clear,280,2013-09-17 07:53:00
3:53 AM,37.9,37.0,97,30.37,10.0,Calm,Calm,-,N/A,,Clear,0,2013-09-17 08:53:00
4:53 AM,37.0,37.0,100,30.37,10.0,Calm,Calm,-,N/A,,Clear,0,2013-09-17 09:53:00
5:53 AM,37.0,37.0,100,30.37,10.0,Calm,Calm,-,N/A,,Clear,0,2013-09-17 10:53:00
6:53 AM,37.0,37.0,100,30.37,10.0,Calm,Calm,-,N/A,,Clear,0,2013-09-17 11:53:00
7:53 AM,45.0,43.0,93,30.37,10.0,Calm,Calm,-,N/A,,Clear,0,2013-09-17 12:53:00
8:53 AM,52.0,48.0,86,30.37,10.0,Calm,Calm,-,N/A,,Partly Cloudy,0,2013-09-17 13:53:00
9:53 AM,59.0,51.1,75,30.35,10.0,SSE,4.6,-,N/A,,Mostly Cloudy,150,2013-09-17 14:53:00
10:53 AM,61.0,52.0,72,30.33,10.0,South,6.9,-,N/A,,Partly Cloudy,170,2013-09-17 15:53:00
11:53 AM,63.0,51.1,65,30.32,10.0,South,6.9,-,N/A,,Mostly Cloudy,190,2013-09-17 16:53:00
12:53 PM,66.0,51.1,59,30.29,10.0,South,9.2,16.1,N/A,,Mostly Cloudy,190,2013-09-17 17:53:00
1:53 PM,66.9,52.0,59,30.26,10.0,South,10.4,-,N/A,,Scattered Clouds,180,2013-09-17 18:53:00
2:53 PM,64.9,53.1,65,30.23,10.0,SSE,8.1,-,N/A,,Mostly Cloudy,150,2013-09-17 19:53:00
3:53 PM,64.9,54.0,68,30.21,10.0,SE,11.5,-,N/A,,Partly Cloudy,140,2013-09-17 20:53:00
4:53 PM,64.0,53.1,67,30.20,10.0,SE,10.4,-,N/A,,Scattered Clouds,140,2013-09-17 21:53:00
5:53 PM,61.0,53.1,75,30.19,10.0,SE,15.0,-,N/A,,Clear,140,2013-09-17 22:53:00
6:53 PM,59.0,53.1,81,30.17,10.0,SSE,8.1,-,N/A,,Clear,150,2013-09-17 23:53:00
7:53 PM,57.0,53.1,87,30.17,10.0,SSE,8.1,-,N/A,,Clear,150,2013-09-18 00:53:00
8:53 PM,57.9,53.1,84,30.16,10.0,SSE,9.2,-,N/A,,Clear,150,2013-09-18 01:53:00
9:53 PM,55.9,52.0,87,30.15,10.0,South,8.1,-,N/A,,Clear,170,2013-09-18 02:53:00
10:53 PM,55.0,52.0,89,30.14,10.0,South,5.8,-,N/A,,Clear,170,2013-09-18 03:53:00
11:53 PM,57.0,53.1,87,30.12,10.0,South,4.6,-,N/A,,Scattered Clouds,190,2013-09-18 04:53:00